Location: Newark
(34.1333°N, 7.9667°W)
Time: 01:09:01
(UTC+00:00)

Courier 1B Rocket - All Passes

Search period start: 04 December 2021 00:00
Search period end: 14 December 2021 00:00
Orbit: 920 x 1202 km, 28.2° (Epoch: 03 December)

Date Brightness Start Highest point End Pass type
(mag) Time Alt. Az. Time Alt. Az. Time Alt. Az.
04 Dec - 01:06:43 10° WSW 01:12:45 50° S 01:18:46 10° ESE night (unlit)
04 Dec - 03:00:04 10° W 03:05:44 37° SSW 03:11:33 10° SE visible
04 Dec - 04:54:36 10° WSW 04:58:31 17° SSW 05:02:32 10° SSE visible
04 Dec - 20:23:01 10° S 20:26:06 13° SSE 20:29:05 10° SE visible
04 Dec - 22:13:07 10° SW 22:18:53 33° SSE 22:24:25 10° ESE night (unlit)
05 Dec - 00:05:44 10° WSW 00:11:51 49° S 00:17:50 10° ESE night (unlit)
05 Dec - 01:59:00 10° W 02:04:52 43° S 02:10:46 10° ESE night (unlit)
05 Dec - 03:52:56 10° WSW 03:57:42 23° SSW 04:02:34 10° SSE visible
05 Dec - 21:12:33 10° SSW 21:18:00 26° SSE 21:23:13 10° ESE visible
05 Dec - 23:04:45 10° WSW 23:10:57 46° S 23:16:53 10° E night (unlit)
06 Dec - 00:57:56 10° WSW 01:03:59 48° S 01:09:57 10° ESE night (unlit)
06 Dec - 02:51:35 10° WSW 02:56:53 29° SSW 03:02:14 10° SE visible
06 Dec - 04:48:13 10° SW 04:49:33 11° SSW 04:50:52 10° SSW visible
06 Dec - 20:12:15 10° SSW 20:17:07 20° SSE 20:21:45 10° ESE visible
06 Dec - 22:03:49 10° SW 22:10:01 40° SSE 22:15:54 10° E visible
06 Dec - 23:56:52 10° WSW 00:03:04 51° S 00:09:05 10° ESE night (unlit)
07 Dec - 01:50:22 10° W 01:56:03 36° SSW 02:01:41 10° SE night (unlit)
07 Dec - 03:45:08 10° WSW 03:48:45 16° SSW 03:52:24 10° S visible
07 Dec - 19:12:28 10° S 19:16:12 15° SSE 19:19:48 10° ESE visible
07 Dec - 21:02:58 10° SW 21:09:06 34° SSE 21:14:52 10° E visible
07 Dec - 22:55:46 10° WSW 23:02:08 50° S 23:08:12 10° ESE night (unlit)
08 Dec - 00:49:11 10° W 00:55:11 43° S 01:01:02 10° ESE night (unlit)
08 Dec - 02:43:19 10° WSW 02:47:58 22° SSW 02:52:38 10° SSE night (unlit)
08 Dec - 20:02:17 10° SW 20:08:09 28° SSE 20:13:41 10° ESE visible
08 Dec - 21:54:41 10° WSW 22:01:11 47° S 22:07:18 10° E visible
08 Dec - 23:48:02 10° W 23:54:17 49° S 00:00:17 10° ESE night (unlit)
09 Dec - 01:41:51 10° WSW 01:47:10 29° SSW 01:52:26 10° SE night (unlit)
09 Dec - 19:01:52 10° SSW 19:07:11 22° SSE 19:12:16 10° ESE visible
09 Dec - 20:53:38 10° WSW 21:00:12 42° SSE 21:06:21 10° E visible
09 Dec - 22:46:51 10° WSW 22:53:21 52° S 22:59:29 10° ESE night (unlit)
10 Dec - 00:40:30 10° W 00:46:20 36° SSW 00:51:59 10° SE night (unlit)
10 Dec - 02:35:31 10° WSW 02:39:00 15° SSW 02:42:29 10° S night (unlit)
10 Dec - 18:01:54 10° S 18:06:14 16° SSE 18:10:23 10° ESE visible
10 Dec - 19:52:42 10° SW 19:59:12 36° SSE 20:05:18 10° E visible
10 Dec - 21:45:39 10° WSW 21:52:21 52° S 21:58:38 10° ESE visible
10 Dec - 23:39:13 10° W 23:45:28 44° SSW 23:51:24 10° ESE night (unlit)
11 Dec - 01:33:32 10° WSW 01:38:14 22° SSW 01:42:51 10° SSE night (unlit)
11 Dec - 17:03:12 10° SSE 17:05:15 11° SSE 17:07:16 10° SE daylight
11 Dec - 18:51:56 10° SW 18:58:11 30° SSE 19:04:07 10° ESE visible
11 Dec - 20:44:28 10° WSW 20:51:20 49° S 20:57:43 10° E visible
11 Dec - 22:37:58 10° W 22:44:32 49° S 22:50:41 10° ESE night (unlit)
12 Dec - 00:31:56 10° WSW 00:37:27 29° SSW 00:42:45 10° SE night (unlit)
12 Dec - 17:51:26 10° SSW 17:57:10 23° SSE 18:02:40 10° ESE visible
12 Dec - 19:43:21 10° WSW 19:50:17 44° SSE 19:56:45 10° E visible
12 Dec - 21:36:41 10° WSW 21:43:32 53° S 21:49:54 10° ESE visible
12 Dec - 23:30:29 10° W 23:36:35 37° SSW 23:42:22 10° SE night (unlit)
13 Dec - 01:25:42 10° WSW 01:29:15 15° SSW 01:32:44 10° S night (unlit)
13 Dec - 16:51:23 10° SSW 16:56:09 18° SSE 17:00:47 10° ESE daylight
13 Dec - 18:42:21 10° SW 18:49:13 38° SSE 18:55:40 10° E visible
13 Dec - 20:35:24 10° WSW 20:42:29 53° S 20:49:02 10° ESE visible
13 Dec - 22:29:06 10° W 22:35:40 44° SSW 22:41:49 10° ESE visible
